This demonstration page uses our WeatherBlox Daily Observations layout. Learn more.

Left ArrowRight Arrow

39.92423, -83.80882

Hourly Observations for March 6, 2020

Temp ( °F °C ) Dew Point ( °F °C ) Humidity (%) Winds ( mph kmh ) Pressure ( in mb ) Visibility ( mi km ) Precip ( " mm )
12:56 am 00:56 Clear 40 4.4 33 0.6 77 77 WNW 8 13 29.93 1014 10 16.0934 0 0
1:56 am 01:56 Cloudy 39 3.9 33 0.6 79 79 W 10 17 29.94 1014 10 16.0934 0 0
2:56 am 02:56 Cloudy 39 3.9 31 -0.6 73 73 W 13 20 29.93 1014 10 16.0934 0 0
3:56 am 03:56 Cloudy 38 3.3 31 -0.6 76 76 W 17 28 29.93 1014 10 16.0934 0.001 0.001
4:54 am 04:54 Cloudy with Light Rain 37 3 32 0 81 81 W 18 30 29.96 1015 10 16.0934 0.001 0.001
4:56 am 04:56 Cloudy with Light Rain 37 2.8 32 0 82 82 W 17 28 29.94 1014 10 16.0934 0.001 0.001
5:10 am 05:10 Cloudy 36 2 30 -1 81 81 W 17 28 29.97 1015 10 16.0934 0.001 0.001
5:56 am 05:56 Cloudy 36 2.2 31 -0.6 82 82 W 14 22 29.96 1015 10 16.0934 0.001 0.001
6:08 am 06:08 Cloudy with Light Rain 36 2 30 -1 81 81 W 18 30 29.99 1016 10 16.0934 0.001 0.001
6:56 am 06:56 Cloudy with Light Snow 35 1.7 32 0 89 89 W 13 20 29.99 1016 9 14.48406 0.001 0.001
7:20 am 07:20 Cloudy with Light Snow 34 1 34 1 100 100 W 15 24 30.02 1017 4 6.43736 0.001 0.001
7:49 am 07:49 Cloudy with Light Snow 34 1 34 1 100 100 W 16 26 30.03 1017 4 6.43736 0.001 0.001
7:56 am 07:56 Cloudy with Light Snow 34 1.1 33 0.6 97 97 W 13 20 30.01 1016 4 6.43736 0.001 0.001
8:56 am 08:56 Cloudy with Light Snow 34 1.1 34 1.1 100 100 WNW 16 26 30.04 1017 3 4.82802 0.001 0.001
9:56 am 09:56 Cloudy with Light Snow 34 1.1 34 1.1 100 100 WNW 17 28 30.06 1018 7 11.26538 0.001 0.001
10:22 am 10:22 Cloudy with Light Snow 36 2 34 1 93 93 WNW 15 24 30.09 1019 8 12.87472 0.001 0.001
10:56 am 10:56 Cloudy with Light Rain 35 1.7 33 0.6 93 93 WNW 17 28 30.09 1019 10 16.0934 0.001 0.001
11:22 am 11:22 Cloudy with Light Rain 36 2 34 1 93 93 WNW 23 37 30.12 1020 10 16.0934 0.001 0.001
11:56 am 11:56 Cloudy with Light Snow 35 1.7 32 0 89 89 WNW 17 28 30.12 1020 9 14.48406 0.001 0.001
12:10 pm 12:10 Cloudy with Light Rain 36 2 32 0 87 87 WNW 25 41 30.14 1020 10 16.0934 0.001 0.001
12:25 pm 12:25 Cloudy with Light Rain 36 2 32 0 87 87 WNW 24 39 30.15 1021 10 16.0934 0.001 0.001
12:56 pm 12:56 Cloudy with Light Rain 35 1.7 32 0 89 89 WNW 23 37 30.14 1021 10 16.0934 0.001 0.001
1:12 pm 13:12 Cloudy with Light Rain 36 2 34 1 93 93 WNW 23 37 30.17 1022 10 16.0934 0.001 0.001
1:56 pm 13:56 Cloudy with Light Rain 35 1.7 34 1.1 96 96 WNW 15 24 30.16 1021 10 16.0934 0.001 0.001
2:56 pm 14:56 Cloudy with Light Rain 36 2.2 35 1.7 97 97 NW 20 31 30.18 1022 7 11.26538 0.001 0.001
3:14 pm 15:14 Cloudy 36 2 36 2 100 100 NW 20 31 30.21 1023 10 16.0934 0.001 0.001
3:56 pm 15:56 Cloudy 37 2.8 33 0.6 86 86 NNW 18 30 30.22 1023 10 16.0934 0.001 0.001
4:56 pm 16:56 Cloudy with Light Rain 35 1.7 31 -0.6 85 85 NNW 22 35 30.26 1025 10 16.0934 0.001 0.001
5:56 pm 17:56 Cloudy 35 1.7 29 -1.7 78 78 NNW 21 33 30.31 1026 10 16.0934 0.001 0.001
6:56 pm 18:56 Cloudy 34 1.1 28 -2.2 79 79 NNW 17 28 30.34 1027 10 16.0934 0.001 0.001
7:56 pm 19:56 Cloudy 34 1.1 28 -2.2 79 79 NNW 14 22 30.36 1028 10 16.0934 0 0
8:17 pm 20:17 Cloudy 34 1 28 -2 81 81 NNW 12 19 30.39 1029 10 16.0934 0 0
8:56 pm 20:56 Cloudy 34 1.1 29 -1.7 82 82 NNW 18 30 30.39 1029 10 16.0934 0 0
9:15 pm 21:15 Cloudy 34 1 27 -3 75 75 N 18 30 30.41 1030 10 16.0934 0 0
9:56 pm 21:56 Cloudy 33 0.6 26 -3.3 75 75 NNW 16 26 30.42 1030 10 16.0934 0 0
10:56 pm 22:56 Cloudy 32 0 24 -4.4 73 73 N 20 31 30.43 1030 10 16.0934 0 0
11:56 pm 23:56 Cloudy 32 0 23 -5 69 69 N 14 22 30.45 1031 10 16.0934 0 0

Powered by AerisWeather